Tacoma, WA

12:01 PM PDT on September 25, 2017 (GMT -0700)
McChord Air Force Base

Weather History for KTCM - August, 2013

Change the Weather History Date:

Thursday, August 22, 2013

  Actual Average Record
Temperature  
Mean Temperature 66 °F -  
Max Temperature 82 °F 74 °F 88 °F (1956)
Min Temperature 52 °F 51 °F 41 °F (1960)
Cooling Degree Days 2    
Growing Degree Days 16 (Base 50)    
Moisture  
Dew Point 52 °F    
Average Humidity 61    
Maximum Humidity 94    
Minimum Humidity 35    
Precipitation  
Precipitation 0.00 in - - ()
Sea Level Pressure  
Sea Level Pressure 29.91 in    
Wind  
Wind Speed 2 mph (NW)    
Max Wind Speed 12 mph    
Max Gust Speed -    
Visibility 10 miles    
Events      
Averages and records for this station are not official NWS values.
T = Trace of Precipitation, MM = Missing Value Source: NWS Daily Summary

Daily Weather History Graph

Daily Weather History Graph

Search for Another Location

Airport or City:

Trip Planner

Search our weather history database for the weather conditions in past years. The results will help you decide how hot, cold, wet, or windy it might be!

Date:

Astronomy

Aug. 22, 2013 Rise Set
Actual Time 6:16 AM PDT 8:07 PM PDT
Civil Twilight 5:43 AM PDT 8:40 PM PDT
Nautical Twilight 5:03 AM PDT 9:20 PM PDT
Astronomical Twilight 4:19 AM PDT 10:04 PM PDT
Moon 8:41 PM PDT (8/22) 8:22 AM PDT (8/22)
Length of Visible Light 14h 56m
Length of Day
13h 51m
Waning Gibbous, 96% of the Moon is Illuminated
Aug 22
Waning Gibbous
Aug 28
Last Quarter
Sep 5
New
Sep 12
First Quarter
Sep 19
Full

Hourly Weather History & Observations

Time (PDT) Temp. Heat Index Dew Point Humidity Pressure Visibility Wind Dir Wind Speed Gust Speed Precip Events Conditions
12:58 AM 57.4 °F - 52.0 °F 82% 29.96 in 10.0 mi Calm Calm - N/A   Clear
1:58 AM 56.1 °F - 52.5 °F 88% 29.95 in 10.0 mi Variable 1.2 mph - N/A   Clear
2:58 AM 55.0 °F - 51.6 °F 88% 29.95 in 10.0 mi South 2.3 mph - N/A   Clear
3:58 AM 54.0 °F - 51.6 °F 92% 29.94 in 10.0 mi Calm Calm - N/A   Clear
4:58 AM 52.5 °F - 50.9 °F 94% 29.94 in 10.0 mi Calm Calm - N/A   Clear
5:58 AM 53.1 °F - 51.4 °F 94% 29.94 in 10.0 mi ESE 1.2 mph - N/A   Clear
6:58 AM 52.2 °F - 48.7 °F 88% 29.94 in 10.0 mi Calm Calm - N/A   Clear
7:58 AM 58.5 °F - 53.2 °F 83% 29.95 in 10.0 mi Calm Calm - N/A   Partly Cloudy
8:58 AM 63.7 °F - 53.8 °F 70% 29.94 in 10.0 mi NNE 2.3 mph - N/A   Clear
9:21 AM 66.2 °F - 53.6 °F 64% 29.93 in 10.0 mi Variable 3.5 mph - N/A   Clear
9:22 AM 66.2 °F - 53.6 °F 64% 29.93 in 10.0 mi Variable 3.5 mph - N/A   Clear
9:25 AM 66.2 °F - 53.6 °F 64% 29.93 in 10.0 mi Variable 2.3 mph - N/A   Clear
9:27 AM 68.0 °F - 53.6 °F 60% 29.93 in 10.0 mi Variable 1.2 mph - N/A   Clear
9:28 AM 68.0 °F - 53.6 °F 60% 29.93 in 10.0 mi Variable 1.2 mph - N/A   Clear
9:58 AM 70.2 °F - 54.5 °F 57% 29.94 in 10.0 mi Variable 1.2 mph - 0.00 in   Clear
10:08 AM 71.6 °F - 53.6 °F 53% 29.93 in 10.0 mi Calm Calm - N/A   Clear
10:17 AM 71.6 °F - 53.6 °F 53% 29.92 in 10.0 mi Variable 2.3 mph - N/A   Clear
10:58 AM 75.6 °F - 51.6 °F 43% 29.93 in 10.0 mi North 11.5 mph - 0.00 in   Clear
11:58 AM 77.9 °F - 52.3 °F 41% 29.92 in 10.0 mi Variable 5.8 mph - N/A   Clear
12:58 PM 80.4 °F - 52.9 °F 38% 29.90 in 10.0 mi Variable 5.8 mph - N/A   Clear
1:58 PM 80.8 °F - 51.1 °F 35% 29.89 in 10.0 mi North 10.4 mph - N/A   Partly Cloudy
2:58 PM 81.1 °F 80.6 °F 53.6 °F 38% 29.87 in 10.0 mi North 5.8 mph - N/A   Partly Cloudy
5:58 PM 81.9 °F - 52.3 °F 36% 29.84 in 10.0 mi Calm Calm - N/A   Scattered Clouds
6:58 PM 80.8 °F - 52.0 °F 37% 29.84 in 10.0 mi West 2.3 mph - N/A   Scattered Clouds
7:58 PM 78.8 °F - 52.3 °F 40% 29.84 in 10.0 mi West 3.5 mph - N/A   Overcast
8:58 PM 74.7 °F - 52.9 °F 46% 29.86 in 10.0 mi West 6.9 mph - N/A   Overcast
9:58 PM 72.3 °F - 50.7 °F 46% 29.86 in 10.0 mi NW 1.2 mph - N/A   Mostly Cloudy
10:58 PM 67.8 °F - 51.8 °F 56% 29.86 in 10.0 mi Calm Calm - N/A   Clear
11:58 PM 65.3 °F - 51.4 °F 61% 29.86 in 10.0 mi SSW 4.6 mph - N/A   Overcast